Regional Weather Roundup
Issued by NWS Kansas City/Pleasant Hill, MO

Home | Current Version | Previous Version | Graphics & Text | Print | Product List | Glossary Off
Versions: 1 2 3 4 5 6 7 8 9 10 11 12 13 14 15 16 17 18 19 20 21 22 23 24 25 26 27

000
ASUS43 KEAX 221910
RWREAX

WEATHER ROUNDUP FOR EASTERN KANSAS AND NORTHWEST MISSOURI
NATIONAL WEATHER SERVICE KANSAS CITY/PLEASANT HILL MO
200 PM CDT FRI JUL 22 2016

KSZ040-057-103>105-MOZ028-029-037-043-222000-
...KANSAS CITY METROPOLITAN AREA...

CITY           SKY/WX    TMP DP  RH WIND       PRES   REMARKS
K.C. INTL      PTSUNNY   89  75  63 S22       30.03F HX  99
K.C. DOWNTOWN  MOSUNNY   91  73  55 SE15      30.03F HX  99
LEES SUMMIT    SUNNY     89  72  56 S13G22    30.06F HX  96
OLATHE - IXD   SUNNY     92  76  59 SE17      30.04F HX 104
OLATHE - OJC   MOSUNNY   88  76  67 SE18G25   30.05F HX  99
LAWRENCE       SUNNY     95  77  55 SE16      30.00F HX 109

$$

MOZ001>008-011>017-020>025-030>033-038>040-044>046-053-054-222000-
...NORTHERN AND CENTRAL MISSOURI...

CITY           SKY/WX    TMP DP  RH WIND       PRES   REMARKS
ST. JOSEPH     CLOUDY    89  76  65 S15G25    30.00F HX 100
MOSBY          CLOUDY    86  72  62 S14       30.04F HX  92
WHITEMAN AFB   PTSUNNY   88  74  62 S14       30.04F HX  96
CLINTON        SUNNY     88  73  62 S12G17    30.07F HX  96
SEDALIA        PTSUNNY   89  74  60 S10       30.06F HX  98
WARSAW         NOT AVBL
CHILLICOTHE      N/A     87  73  62 S15G23    30.03F HX  94
KIRKSVILLE     SUNNY     87  73  62 S9        30.04F HX  94

$$

MOZ041-047>049-056>058-063>065-088>090-097-222000-
...EASTERN AND SOUTHERN MISSOURI...

CITY           SKY/WX    TMP DP  RH WIND       PRES   REMARKS
ST. LOUIS INTL CLOUDY    82  71  69 E3        30.04F
SPIRIT OF STL  PTSUNNY   81  73  76 E5        30.02F
COLUMBIA       MOSUNNY   88  74  63 SW12      30.03F HX  96
JEFFERSON CITY CLOUDY    86  71  60 W6        30.01F HX  91
ROLLA          CLOUDY    84  72  67 SW15      30.02F
OSAGE BEACH    MOSUNNY   85  72  65 SW9       30.05F HX  91
SPRINGFIELD    MOSUNNY   92  75  57 NE13      30.08F HX 103
JOPLIN         SUNNY     94  74  52 S12       30.06F HX 104
WEST PLAINS    SUNNY     92  73  53 N8        30.10F HX 100

$$

IAZ060-094-KSZ022-034>040-054-083-096-NEZ052-066-093-222000-
...KANSAS...SOUTHEAST NEBRASKA AND IOWA...

CITY           SKY/WX    TMP DP  RH WIND       PRES   REMARKS
TOPEKA         SUNNY     98  71  41 SE14G23   29.98F HX 106
MANHATTAN      SUNNY    103  70  34 S15       29.94F HX 111
EMPORIA        SUNNY     97  70  41 S16G28    30.01F HX 103
CHANUTE        SUNNY     95  73  48 SW12      30.03F HX 104
WICHITA        MOSUNNY  103  66  30 S17G24    30.00F HX 107
OMAHA          MOSUNNY   92  76  59 SE17G24   29.94F HX 104
LINCOLN        SUNNY     94  74  52 S15       29.95F HX 104
FALLS CITY     SUNNY     92  78  63 SE23G29   29.96F HX 107
LAMONI         MOSUNNY   85  75  72 S15G25    30.02F HX  93
DES MOINES     PTSUNNY   89  74  60 SW15      29.98F HX  98

$$





USA.gov is the U.S. government's official web portal to all federal, state and local government web resources and services.